Regional Weather Roundup
Issued by NWS San Diego, CA

Current Version | Previous Version | Text Only | Print | Product List | Glossary On
Versions: 1 2 3 4 5 6 7 8 9 10 11 12 13 14 15 16 17 18 19 20 21 22 23 24 25 26 27 28 29 30 31 32 33 34 35 36 37 38 39 40 41 42 43 44 45 46 47 48 49 50
000
ASUS46 KSGX 230611
RWRSGX

SAN DIEGO HOURLY WEATHER ROUNDUP
NATIONAL WEATHER SERVICE SAN DIEGO CA
1100 PM PDT SUN APR 22 2018

NOTE: "FAIR" INDICATES FEW OR NO CLOUDS BELOW 12,000 FEET WITH NO
SIGNIFICANT WEATHER AND/OR OBSTRUCTIONS TO VISIBILITY.

CAZ042-043-060-061-PZZ750-775-230700-

GREATER SAN DIEGO AREA

CITY           SKY/WX    TMP DP  RH WIND       PRES   REMARKS
SAN DIEGO AP   PTCLDY    61  55  82 S7        29.99S
NATIONAL CITY    N/A     60  57  88 CALM      29.97F
CHULA VISTA      N/A     59  56  92 CALM      29.89F
IMPERIAL BEACH CLOUDY    59  56  89 CALM      29.98S FOG
BROWN FIELD    CLOUDY    56  55  97 CALM      29.97F FOG
MIRAMAR MCAS   CLEAR     59  54  83 SE5       29.96F FOG
MONTGOMERY FLD CLEAR     59  55  87 S3        29.97F
GILLESPIE FLD  FAIR      63  55  77 SE5       29.96F

$$

NORTH SAN DIEGO COUNTY

CITY           SKY/WX    TMP DP  RH WIND       PRES   REMARKS
CAMP PENDLETON CLOUDY    54  53  97 CALM      29.97S
OCEANSIDE AP   CLOUDY    60  57  89 CALM      29.96S FOG
OCEANSIDE HBR    N/A     60  58  94 NW2       29.99S
VISTA            N/A     57  51  82 CALM      29.94S
CARLSBAD       FOG       58  57  97 W3        29.97R VSB 3/4
DEL MAR          N/A     57  56  97 CALM      29.99S
LA JOLLA SCRIP   N/A     58  57  96 E3        29.96S
FALLBROOK        N/A     57  57  99 CALM      29.96S
ESCONDIDO        N/A     63  56  78 SW1       29.96S
SAN MARCOS       N/A     59  54  83 CALM      29.99S
POWAY            N/A     58  52  79 CALM      29.95F

$$

EAST SAN DIEGO COUNTY

CITY           SKY/WX    TMP DP  RH WIND       PRES   REMARKS
RAMONA         CLEAR     54  35  48 E3        29.98F
SANTEE LAKES     N/A     59  54  83 CALM      29.95S
LA MESA          N/A     57  54  90 CALM      29.91S
JAMUL            N/A     56  52  87 CALM      29.95F
CAMPO            N/A     51  34  52 CALM      29.99S

$$

ORANGE COUNTY AND THE LOS ANGELES BASIN

CITY           SKY/WX    TMP DP  RH WIND       PRES   REMARKS
JOHN WAYNE AP  PTCLDY    60  57  89 SW3       29.96F
LAGUNA BEACH     N/A     58  55  90 CALM      29.91S
LAKE FOREST FR   N/A     60  46  59 CALM      29.83S
HUNTINGTON BCH   N/A     58  56  93 S3        29.97S
LOS ALAMITOS   FAIR      58  56  94 CALM      29.96S
FULLERTON      CLEAR     60  56  86 CALM      29.96S
LONG BEACH     CLEAR     61  57  87 SW3       29.96S
L.A. AP        PTCLDY    59  55  87 CALM      29.96S
L.A. DOWNTOWN  PTCLDY    60  56  86 CALM      29.96R

$$

THE INLAND EMPIRE

CITY           SKY/WX    TMP DP  RH WIND       PRES   REMARKS
CORONA         CLEAR     62  51  67 MISG        N/A
CHINO          CLEAR     63  48  58 NW5       29.97R
ONTARIO        CLEAR     64  46  52 W7        29.97R
SAN BERNARDINO FAIR      69  37  30 CALM      29.98R
RIVERSIDE AP   CLEAR     66  43  43 SW3       29.96R
MORENO VALLEY    N/A     67  41  39 CALM      28.10R
MARCH ARB      CLEAR     59  37  45 CALM      29.98R
HORSETHIEF CYN   N/A     65  29  26 CALM      29.95R
PERRIS           N/A     65  48  54 SE3       29.92R
HEMET EAST       N/A     64  32  29 CALM      29.89R
FRENCH VALLEY  FAIR      63  41  45 CALM      29.98F
TEMECULA         N/A     63  53  69 CALM      30.04R

$$

SAN BERNARDINO AND RIVERSIDE COUNTY MOUNTAINS

CITY           SKY/WX    TMP DP  RH WIND       PRES   REMARKS
BIG BEAR AP    CLEAR     41  23  48 CALM      30.19S

$$

SOUTHERN DESERT INCLUDING THE COACHELLA VALLEY

CITY           SKY/WX    TMP DP  RH WIND       PRES   REMARKS
PALM SPRINGS   CLEAR     86  25  11 NW7       29.84R
THOUSAND PALMS   N/A     82  37  20 W12       29.80R
PALM DESERT      N/A     82  39  21 CALM        N/A
THERMAL        CLEAR     85  39  19 N15       29.79R
BLYTHE         CLEAR     80  28  15 SW5       29.82R
IMPERIAL AP    CLEAR     76  35  22 W10       29.81S
EL CENTRO NAS  CLEAR     76  32  20 SW12      29.83S
YUMA AZ        CLEAR     74  42  31 CALM      29.84S
MEXICALI       CLEAR     75  34  22 S5        29.84R

$$

UPPER DESERT

CITY           SKY/WX    TMP DP  RH WIND       PRES   REMARKS
VICTORVILLE AP CLEAR     63  32  31 S10       30.00S
HESPERIA         N/A     63  36  36 CALM      29.92R
APPLE VALLEY     N/A     60  36  40 E1        29.95S
PALMDALE       CLEAR     70  31  23 SW13      29.99S
LANCASTER      CLEAR     66  37  34 SW13      29.97S
EDWARDS AFB    CLEAR     67  34  29 SW13      29.94S
DAGGETT        CLEAR     77  33  20 SW17G25   29.91F
29 PALMS N     CLEAR     73  28  18 CALM      29.98R
NEEDLES        CLEAR     84  18   8 SW12      29.82R

$$

REGIONAL REPORTS

CITY           SKY/WX    TMP DP  RH WIND       PRES   REMARKS
SANTA BARBARA  CLEAR     56  53  90 E5        29.93S
SANDBERG       CLEAR     61  35  37 NW15      30.10S
LAS VEGAS NV   CLEAR     77  19  11 SW6       29.86S
PHOENIX AZ     CLEAR     79  28  15 W3        29.83R
TIJUANA        CLEAR     57  55  94 CALM      29.99S

$$

OFFSHORE ISLANDS

CITY           SKY/WX    TMP DP  RH WIND       PRES   REMARKS
CATALINA ARPT  CLEAR     65  42  43 NW3       29.99S
SAN NICOLAS IS CLEAR     64  18  17 W13       29.95S

$$

MARINE AND OFFSHORE BUOY REPORTS

STATION/POSITION SKY/WX   TEMP    WIND        PRES    VSBY  SWELL
                          AIR SEA DIR/SP/G                  HT/PER/DIR
                          (F)     (DEG/KT/KT) (MB)    (MI)  (FT/S/D)
TANNER BANKS               58 59              1014.5S
S CLEMENTE BASIN           59 62  270/  6/ 10 1014.8F         5/260/15
SAN NICOLAS IS.               57                N/A           7/280/14
SO. S. ROSA ISLA           55 56  290/ 14/ 17 1013.9R         7/300/14
W. S. BARBARA CH              54  300/ 16/ 19 1013.5F         7/280/14
M. S. BARBARA CH           56 56  240/ 12/ 16   N/A
S. MONICA BASIN                    CALM  /  2 1013.9
S PEDRO CHANNEL               57                N/A           3/200/14
CMP PENDLETON NS              61                N/A           2/210/15
OCEANSIDE OFFSHR              61                N/A           2/190/15
TORREY PINES OTR              62                N/A           2/190/15
SAN DIEGO BAY                 62              1014.8
POINT LOMA SOUTH              62                N/A           3/210/14

$$




USA.gov is the U.S. government's official web portal to all federal, state and local government web resources and services.